TITAN 3C TRANSTAGE DEB, 3373

Orbit data source: Space-Track

TITAN 3C TRANSTAGE DEB, 3373 is space debris in LEO originally from a launch on Fri, 15 Oct 1965 UTC launched from the Air Force Eastern Test Range (AFETR). Debris objects in space refer to the collection of defunct objects orbiting the Earth. Examples of debris include non-operational satellites, rocket bodies, and fragments generated from explosions, collisions, or faulty payload assembly.

Loading next visibility...
Identifier
3373, 1965-082ML
Orbit
LEO
Country
Flag of USUS
Related business
Manufacturer
Unknown
Mission
Spacecraft
Bus & Motor
Unknown
Mass
Unknown
Launch date (UTC)
1965-10-15 (60 years ago)
Launch vehicle
Unknown
Launch site
Air Force Eastern Test Range (AFETR)
Object type
Payload
Rocket body
Debris
Shape & HBR
Unknown shape, 0.1 m
Radar Cross Section
Small (<0.1 m²)

Expand to show TLE details & history
Last TLE update: 21 hours ago

TLE from 21 hours ago
0 TITAN 3C TRANSTAGE DEB
1 03373U 65082ML  25303.60705255  .00007934  00000-0  17052-2 0  9990
2 03373  30.9751  51.8164 0155925  49.8308 311.5853 14.50081830 17393
Epoch: 2025-10-30T14:34Z
TLE epoch observation values (Epoch: 2025-10-30T14:34:09.340Z)
Latitude
Longitude
154.11407°
Altitude
651.41 km
Speed
7.573 km/s
True Right ascension
03h 27m 15s
True Declination
0° 00' 00"
Sunlit
Object was in full shadow at epoch
Visualization orbit readout
Latitude
Unknown
Longitude
Unknown
Altitude
Unknown
Speed
Unknown
Apparent Right ascension
Unknown
Apparent Declination
Unknown
Sunlit
N/A
Visualization observer readout
Local Sidereal Time
07:41:45
Azimuth
Unknown
Elevation
Unknown
Doppler factor
Unknown
Orbital elements
Apogee altitude
839.945 km
Perigee altitude
618.305 km
Semi-major axis
7,107.262 km
Eccentricity
0.01559
Inclination
30.9751°
RAAN
51.8164°
Arg. of periapsis
49.8308°
True anomaly
310.23147°
Mean anomaly
311.5853°
Eccentric anomaly
310.91014°
Mean motion
3.62234 °/min
Orbital period
99.38 mins
BSTAR
0.0017052

Documentation

Showing up to 5 results
|